Estación de San Diego
Ultimos registro cada 15 minutos 47
| N° | Estación | Fecha / Hora | Temperatura | Humedad | Lluvia | Velocidad | Dirección | Radiación | Presion |
| 47 | San Diego | 10-05-2026 11:30 | 18,6 | 51 | 0 | 0,4 | 324 | 527 | 1012,5 |
| 46 | San Diego | 10-05-2026 11:15 | 17,8 | 54 | 0 | 1,8 | 339 | 508 | 1012,8 |
| 45 | San Diego | 10-05-2026 11:00 | 16,6 | 59 | 0 | 0,9 | 333 | 482 | 1013 |
| 44 | San Diego | 10-05-2026 10:45 | 15,6 | 63 | 0 | 0,4 | 351 | 452 | 1013,1 |
| 43 | San Diego | 10-05-2026 10:30 | 14,6 | 66 | 0 | 0,9 | 324 | 434 | 1013,2 |
| 42 | San Diego | 10-05-2026 10:15 | 13,6 | 70 | 0 | 0,4 | 4 | 404 | 1013,3 |
| 41 | San Diego | 10-05-2026 10:00 | 12,6 | 75 | 0 | 0,9 | 339 | 366 | 1013,3 |
| 40 | San Diego | 10-05-2026 09:45 | 11,1 | 84 | 0 | 0 | 345 | 153 | 1013,4 |
| 39 | San Diego | 10-05-2026 09:30 | 9,8 | 88 | 0 | 0,9 | 357 | 292 | 1013,5 |
| 38 | San Diego | 10-05-2026 09:15 | 8,4 | 92 | 0 | 0 | 341 | 255 | 1013,3 |
| 37 | San Diego | 10-05-2026 09:00 | 7,1 | 93 | 0 | 0 | 345 | 214 | 1013,6 |
| 36 | San Diego | 10-05-2026 08:45 | 6 | 96 | 0 | 0 | 39 | 167 | 1013,6 |
| 35 | San Diego | 10-05-2026 08:30 | 4,8 | 96 | 0 | 0 | 355 | 26 | 1013,4 |
| 34 | San Diego | 10-05-2026 08:15 | 3,8 | 96 | 0 | 0 | 15 | 53 | 1013,1 |
| 33 | San Diego | 10-05-2026 08:00 | 3,4 | 95 | 0 | 0 | 344 | 21 | 1013 |
| 32 | San Diego | 10-05-2026 07:45 | 2,9 | 96 | 0 | 0,4 | 341 | 12 | 1013 |
| 31 | San Diego | 10-05-2026 07:30 | 2,3 | 95 | 0 | 0 | 282 | 5 | 1012,9 |
| 30 | San Diego | 10-05-2026 07:15 | 2,4 | 94 | 0 | 0 | 342 | 0 | 1012,8 |
| 29 | San Diego | 10-05-2026 07:00 | 2,6 | 95 | 0 | 0 | 353 | 0 | 1012,8 |
| 28 | San Diego | 10-05-2026 06:45 | 2,7 | 94 | 0 | 0,4 | 339 | 0 | 1012,8 |
| 27 | San Diego | 10-05-2026 06:30 | 3,1 | 94 | 0 | 0 | 10 | 0 | 1012,7 |
| 26 | San Diego | 10-05-2026 06:15 | 3,6 | 95 | 0 | 0 | 335 | 0 | 1012,5 |
| 25 | San Diego | 10-05-2026 06:00 | 3,7 | 95 | 0 | 0 | 349 | 0 | 1012,5 |
| 24 | San Diego | 10-05-2026 05:45 | 3,6 | 95 | 0 | 0,4 | 322 | 0 | 1012,5 |
| 23 | San Diego | 10-05-2026 05:30 | 3,6 | 94 | 0 | 0,4 | 308 | 0 | 1012,5 |
| 22 | San Diego | 10-05-2026 05:15 | 3,9 | 94 | 0 | 0 | 332 | 0 | 1012,6 |
| 21 | San Diego | 10-05-2026 05:00 | 4,2 | 95 | 0 | 1,8 | 313 | 0 | 1012,6 |
| 20 | San Diego | 10-05-2026 04:45 | 3,9 | 95 | 0 | 0,4 | 268 | 0 | 1012,4 |
| 19 | San Diego | 10-05-2026 04:30 | 3,9 | 95 | 0 | 0 | 277 | 0 | 1012,5 |
| 18 | San Diego | 10-05-2026 04:15 | 3,9 | 95 | 0 | 0 | 345 | 0 | 1012,5 |
| 17 | San Diego | 10-05-2026 04:00 | 3,9 | 95 | 0 | 0 | 337 | 0 | 1012,5 |
| 16 | San Diego | 10-05-2026 03:45 | 4,2 | 95 | 0 | 0,4 | 309 | 0 | 1012,6 |
| 15 | San Diego | 10-05-2026 03:30 | 3,7 | 95 | 0 | 0,9 | 347 | 0 | 1012,6 |
| 14 | San Diego | 10-05-2026 03:15 | 3,8 | 95 | 0 | 0 | 1 | 0 | 1012,8 |
| 13 | San Diego | 10-05-2026 03:00 | 4 | 95 | 0 | 0 | 360 | 0 | 1012,9 |
| 12 | San Diego | 10-05-2026 02:45 | 4,2 | 96 | 0 | 0,4 | 329 | 0 | 1013,1 |
| 11 | San Diego | 10-05-2026 02:30 | 3,3 | 94 | 0 | 0 | 337 | 0 | 1013,1 |
| 10 | San Diego | 10-05-2026 02:15 | 3,4 | 94 | 0,2 | 0 | 337 | 0 | 1013,2 |
| 9 | San Diego | 10-05-2026 02:00 | 3,5 | 94 | 0 | 0 | 18 | 0 | 1013,3 |
| 8 | San Diego | 10-05-2026 01:45 | 3,6 | 94 | 0 | 0 | 18 | 0 | 1013,4 |
| 7 | San Diego | 10-05-2026 01:30 | 3,8 | 94 | 0 | 0 | 24 | 0 | 1013,6 |
| 6 | San Diego | 10-05-2026 01:15 | 4,1 | 94 | 0 | 0 | 24 | 0 | 1013,7 |
| 5 | San Diego | 10-05-2026 01:00 | 3,9 | 94 | 0 | 0 | 24 | 0 | 1013,6 |
| 4 | San Diego | 10-05-2026 00:45 | 3,9 | 93 | 0 | 0 | 24 | 0 | 1013,9 |
| 3 | San Diego | 10-05-2026 00:30 | 4,3 | 93 | 0 | 0 | 24 | 0 | 1013,7 |
| 2 | San Diego | 10-05-2026 00:15 | 4,7 | 93 | 0 | 0 | 24 | 0 | 1013,6 |
| 1 | San Diego | 10-05-2026 00:00 | 4,9 | 93 | 0 | 0 | 24 | 0 | 1013,9 |